Regional Weather Roundup
Issued by NWS

Home | Current Version | Previous Version | Graphics & Text | Print | Product List | Glossary On
Versions: 1 2 3 4 5 6 7 8 9 10 11 12 13 14 15 16 17 18 19 20 21 22 23 24 25 26 27 28 29 30 31 32 33 34 35 36 37 38 39 40 41 42 43 44 45 46 47 48 49 50
000
ASUS43 KDMX 292206
RWRIA

WEATHER ROUNDUP FOR IOWA
NATIONAL WEATHER SERVICE DES MOINES IA
500 PM CDT SAT APR 29 2017

NOTE: "FAIR" INDICATES FEW OR NO CLOUDS BELOW 12,000 FEET WITH NO
SIGNIFICANT WEATHER AND/OR OBSTRUCTIONS TO VISIBILITY.

* - THESE STATIONS ARE NOT NWS STATIONS...THUS NOT UNDER NWS
QUALITY CONTROL.  THEY ALSO DO NOT REPORT WEATHER SUCH
AS PRECIPITATION OR FOG.

IAZ001>003-012>014-020>022-031>034-043>046-292300-
   NORTHWEST IOWA

CITY           SKY/WX    TMP DP  RH WIND       PRES   REMARKS
CARROLL *      CLOUDY    45  39  81 NE24G31   29.98F
CHEROKEE *     CLOUDY    48  28  45 NE21G29   30.06S
DENISON *      CLOUDY    45  36  70 NE22G35   30.01F
LE MARS *      CLOUDY    50  27  40 NE17G29   30.08F
ORANGE CITY *  CLOUDY    50  27  40 NE15G28   30.07F
SHELDON *      CLOUDY    50  23  34 NE29      30.06F
SIOUX CITY     CLOUDY    50  29  44 NE22G30   30.06F
SPENCER        CLOUDY    50  26  39 NE29G41   30.07F
STORM LAKE *   CLOUDY    46  28  49 NE28G35   30.02F
$$

IAZ055>058-069>071-079>083-090>094-292300-
   SOUTHWEST IOWA

CITY           SKY/WX    TMP DP  RH WIND       PRES   REMARKS
ATLANTIC *     CLOUDY    45  37  76 NE20G33   29.96R
AUDUBON *      CLOUDY    43  37  81 NE20G30   29.98R
CLARINDA *     CLOUDY    45  41  87 NE20G32   29.92R
COUNCIL BLFS *   N/A     45  41  87 NE17G31   29.96R
CRESTON *      CLOUDY    41  41 100 NE28G37   29.88R
HARLAN  *      CLOUDY    45  39  81 NE24G35   30.01R
LAMONI         CLOUDY    42  40  92 NE29G51   29.78F
RED OAK *      CLOUDY    43  39  87 NE29G35   29.93F
SHENANDOAH *   CLOUDY    43  41  93 NE18G32   29.93R
$$

IAZ047>049-059>061-072>074-084-292300-
   CENTRAL IOWA

CITY           SKY/WX    TMP DP  RH WIND       PRES   REMARKS
AMES           CLOUDY    44  38  79 NE17G31   30.00F
ANKENY *       CLOUDY    43  37  81 NE22G35   29.97F
BOONE *        CLOUDY    43  37  81 NE28G36   29.96F
CHARITON *     MIX PCPN  41  39  93 NE31G46   29.84F
DES MOINES     CLOUDY    44  38  79 NE20G37   29.95F
GRINNELL*      CLOUDY    42  38  86 NE25G35   29.98F
KNOXVILLE *    PTSUNNY   43  39  87 NE21G26   29.92F
MARSHALLTOWN   CLOUDY    43  38  82 NE30G37   29.99F
NEWTON *       CLOUDY    43  37  81 NE24G33   29.97F
PELLA *        CLOUDY    42  40  93 NE14G28   29.98F FOG
$$

IAZ004>006-015-016-023>025-035-036-292300-
   NORTH CENTRAL IOWA

CITY           SKY/WX    TMP DP  RH WIND       PRES   REMARKS
ALGONA *       CLOUDY    48  28  46 NE29G37   30.06F
CLARION *      CLOUDY    46  32  57 NE28G35   30.04F
ESTHERVILLE    CLOUDY    48  28  46 NE29G35   30.08F
FORT DODGE *   CLOUDY    46  30  53 NE18G26   30.02F
MASON CITY     CLOUDY    48  28  46 NE23G33   30.09F
FOREST CITY *  PTSUNNY   46  23  39 NE22G29   30.09F
WEBSTER CITY * CLOUDY    45  34  65 NE30      29.98F
IOWA FALLS *   CLOUDY    45  36  71 NE22G28   30.04F
$$

IAZ007>011-017>019-026>030-037>042-050>054-066-292300-
   NORTHEAST IOWA

CITY           SKY/WX    TMP DP  RH WIND       PRES   REMARKS
CEDAR RAPIDS   LGT RAIN  43  40  89 NE18      30.07F
CHARLES CITY * CLOUDY    46  27  46 NE23      30.11F
CLINTON *      RAIN      40  38  93 NE24G33   30.09F WCI  29
DECORAH *      CLOUDY    46  28  49 NE13G24   30.14F
DUBUQUE        LGT RAIN  41  37  86 NE20G28   30.13F
MONTICELLO *   LGT RAIN  43  39  87 NE13G20   30.11S
OELWEIN *      CLOUDY    43  39  87 NE17G23   30.12S
WATERLOO       CLOUDY    44  37  76 NE21      30.08F
$$

IAZ064-065-067-068-078-292300-
   EAST CENTRAL IOWA

CITY           SKY/WX    TMP DP  RH WIND       PRES   REMARKS
DAVENPORT      RAIN      40  37  89 NE31      30.06F FOG     WCI  28
IOWA CITY      LGT RAIN  44  39  82 NE17G28   30.08F
MT. PLEASANT * CLOUDY    42  41  98 NE23G32   29.97F
MUSCATINE *    LGT RAIN  41  39  93 NE31G39   30.03F
QUAD CITIES    TSTM      41  36  82 NE25G33   30.02F
$$

IAZ062-063-075>077-085>089-095>099-292300-
   SOUTHEAST IOWA

CITY           SKY/WX    TMP DP  RH WIND       PRES   REMARKS
BURLINGTON     LGT RAIN  42  32  67 NE26G38   29.93F
FAIRFIELD *    CLOUDY    43  41  93 NE28G37   29.95F FOG
FORT MADISON * DRIZZLE   43  41  93 NE21G32   29.94F
KEOKUK *       LGT RAIN  43  41  93 NE14G25   29.92F
OSKALOOSA *    LGT RAIN  42  40  95 NE28G37   29.93F
CENTERVILLE *  CLOUDY    41  41 100 NE29G38   29.82F
OTTUMWA        CLOUDY    44  42  93 NE26G39   29.91F
WASHINGTON *   LGT RAIN  43  43 100 NE25G35   30.01F
$$

ABBREVIATIONS USED IN REMARKS
   TC - TEMPERATURES IN CELSIUS
  WCI - WIND CHILL INDEX
   HX - HEAT INDEX
  VSB - VISIBILITY
$$




USA.gov is the U.S. government's official web portal to all federal, state and local government web resources and services.